Weather History for Hillsboro, TX

Change the Weather History Date:

Monday, May 13, 2013

  Actual Average (KACT) Record (KACT)
Temperature  
Mean Temperature 67 °F 74 °F  
Max Temperature 84 °F 84 °F 96 °F (1925)
Min Temperature 50 °F 63 °F 45 °F (2013)
Degree Days  
Heating Degree Days 0 0  
Month to date heating degree days 4  
Since 1 July heating degree days 2140  
Cooling Degree Days 2 9  
Month to date cooling degree days 96  
Year to date cooling degree days 250  
Growing Degree Days 17 (Base 50)    
Moisture  
Dew Point 47 °F    
Average Humidity 51    
Maximum Humidity 77    
Minimum Humidity 25    
Precipitation  
Precipitation 0.00 in 0.14 in 3.04 in (1957)
Month to date precipitation 1.78  
Year to date precipitation 12.37  
Sea Level Pressure  
Sea Level Pressure 30.20 in    
Wind  
Wind Speed 6 mph (SSE)    
Max Wind Speed 15 mph    
Max Gust Speed 21 mph    
Visibility 10 miles    
Events      
T = Trace of Precipitation, MM = Missing Value Source: NWS Daily Summary

Daily Weather History Graph

Daily Weather History Graph

Search for Another Location

Airport:

Trip Planner

Search our weather history database for the weather conditions in past years. The results will help you decide how hot, cold, wet, or windy it might be!

Date:

Astronomy

May. 13, 2013 Rise Set
Actual Time 6:32 AM CDT 8:17 PM CDT
Civil Twilight 6:05 AM CDT 8:44 PM CDT
Nautical Twilight 5:33 AM CDT 9:16 PM CDT
Astronomical Twilight 4:58 AM CDT 9:51 PM CDT
Moon 9:20 AM CDT (5/13) 11:27 PM CDT (5/13)
Length of Visible Light 14h 39m
Length of Day
13h 45m
Waxing Crescent, 12% of the Moon is Illuminated
May 13
Waxing Crescent
May 17
First Quarter
May 24
Full
May 31
Last Quarter
Jun 8
New

Hourly Weather History & Observations

Time (CDT) Temp. Dew Point Humidity Pressure Visibility Wind Dir Wind Speed Gust Speed Precip Events Conditions
12:15 AM 59.0 °F 42.8 °F 55% 30.21 in 10.0 mi ESE 6.9 mph - N/A   Clear
12:35 AM 57.2 °F 42.8 °F 59% 30.21 in 10.0 mi ESE 5.8 mph - N/A   Clear
12:55 AM 55.4 °F 42.8 °F 63% 30.21 in 10.0 mi ESE 4.6 mph - N/A   Clear
1:15 AM 55.4 °F 42.8 °F 63% 30.21 in 10.0 mi SE 3.5 mph - N/A   Clear
1:35 AM 55.4 °F 42.8 °F 63% 30.20 in 10.0 mi Calm Calm - N/A   Clear
1:55 AM 55.4 °F 42.8 °F 63% 30.20 in 10.0 mi Calm Calm - N/A   Clear
2:15 AM 57.2 °F 41.0 °F 55% 30.20 in 10.0 mi SSE 3.5 mph - N/A   Clear
2:35 AM 51.8 °F 41.0 °F 67% 30.20 in 10.0 mi South 3.5 mph - N/A   Clear
2:55 AM 51.8 °F 42.8 °F 71% 30.20 in 10.0 mi South 3.5 mph - N/A   Clear
3:15 AM 51.8 °F 42.8 °F 71% 30.20 in 10.0 mi SSE 3.5 mph - N/A   Clear
3:35 AM 51.8 °F 42.8 °F 71% 30.19 in 10.0 mi SSE 3.5 mph - N/A   Clear
3:55 AM 51.8 °F 42.8 °F 71% 30.20 in 10.0 mi Calm Calm - N/A   Clear
4:15 AM 51.8 °F 42.8 °F 71% 30.20 in 10.0 mi Calm Calm - N/A   Clear
4:35 AM 51.8 °F 41.0 °F 67% 30.20 in 10.0 mi Calm Calm - N/A   Clear
4:55 AM 50.0 °F 42.8 °F 76% 30.20 in 10.0 mi SE 3.5 mph - N/A   Clear
5:15 AM 50.0 °F 42.8 °F 76% 30.20 in 10.0 mi SSE 3.5 mph - N/A   Clear
5:35 AM 51.8 °F 42.8 °F 71% 30.20 in 10.0 mi SE 3.5 mph - N/A   Clear
5:55 AM 51.8 °F 42.8 °F 71% 30.20 in 10.0 mi SE 4.6 mph - N/A   Clear
6:15 AM 51.8 °F 42.8 °F 71% 30.20 in 10.0 mi SSE 4.6 mph - N/A   Clear
6:35 AM 51.8 °F 42.8 °F 71% 30.21 in 10.0 mi SSE 3.5 mph - N/A   Clear
6:55 AM 51.8 °F 42.8 °F 71% 30.21 in 10.0 mi SSE 4.6 mph - N/A   Clear
7:15 AM 51.8 °F 42.8 °F 71% 30.22 in 10.0 mi SE 3.5 mph - N/A   Clear
7:35 AM 53.6 °F 46.4 °F 77% 30.23 in 10.0 mi SSE 3.5 mph - N/A   Clear
7:55 AM 55.4 °F 46.4 °F 72% 30.23 in 10.0 mi SSE 3.5 mph - N/A   Clear
8:15 AM 59.0 °F 48.2 °F 67% 30.24 in 10.0 mi South 3.5 mph - N/A   Clear
8:35 AM 60.8 °F 48.2 °F 63% 30.25 in 10.0 mi South 5.8 mph - N/A   Clear
8:55 AM 62.6 °F 48.2 °F 59% 30.25 in 10.0 mi South 10.4 mph - N/A   Clear
9:15 AM 66.2 °F 50.0 °F 56% 30.26 in 10.0 mi South 9.2 mph - N/A   Clear
9:35 AM 68.0 °F 50.0 °F 52% 30.26 in 10.0 mi South 12.7 mph - N/A   Clear
9:55 AM 69.8 °F 50.0 °F 49% 30.26 in 10.0 mi South 15.0 mph 20.7 mph N/A   Clear
10:15 AM 69.8 °F 50.0 °F 49% 30.27 in 10.0 mi SSW 12.7 mph - N/A   Clear
10:35 AM 71.6 °F 50.0 °F 46% 30.26 in 10.0 mi South 13.8 mph - N/A   Clear
10:55 AM 71.6 °F 51.8 °F 50% 30.26 in 10.0 mi South 13.8 mph 17.3 mph N/A   Clear
11:15 AM 73.4 °F 51.8 °F 47% 30.26 in 10.0 mi South 12.7 mph 17.3 mph N/A   Clear
11:35 AM 73.4 °F 51.8 °F 47% 30.26 in 10.0 mi South 11.5 mph - N/A   Clear
11:55 AM 75.2 °F 51.8 °F 44% 30.25 in 10.0 mi South 6.9 mph 16.1 mph N/A   Clear
12:15 PM 77.0 °F 50.0 °F 39% 30.25 in 10.0 mi South 10.4 mph - N/A   Clear
12:35 PM 77.0 °F 50.0 °F 39% 30.25 in 10.0 mi South 9.2 mph - N/A   Clear
12:55 PM 78.8 °F 50.0 °F 36% 30.24 in 10.0 mi SSW 8.1 mph - N/A   Clear
1:15 PM 78.8 °F 46.4 °F 32% 30.24 in 10.0 mi SSW 6.9 mph - N/A   Clear
1:35 PM 80.6 °F 46.4 °F 30% 30.23 in 10.0 mi South 4.6 mph - N/A   Clear
1:55 PM 80.6 °F 48.2 °F 32% 30.22 in 10.0 mi SSW 9.2 mph 19.6 mph N/A   Clear
2:15 PM 80.6 °F 46.4 °F 30% 30.22 in 10.0 mi SSE 9.2 mph - N/A   Clear
2:35 PM 82.4 °F 46.4 °F 28% 30.21 in 10.0 mi South 6.9 mph 16.1 mph N/A   Clear
3:35 PM 82.4 °F 44.6 °F 26% 30.19 in 10.0 mi SSE 9.2 mph - N/A   Clear
3:55 PM 84.2 °F 44.6 °F 25% 30.18 in 10.0 mi South 13.8 mph 17.3 mph N/A   Clear
4:15 PM 82.4 °F 46.4 °F 28% 30.18 in 10.0 mi South 10.4 mph - N/A   Clear
4:35 PM 82.4 °F 46.4 °F 28% 30.17 in 10.0 mi SSE 8.1 mph - N/A   Clear
4:55 PM 84.2 °F 44.6 °F 25% 30.17 in 10.0 mi SSE 5.8 mph 16.1 mph N/A   Clear
5:15 PM 84.2 °F 44.6 °F 25% 30.16 in 10.0 mi SSE 10.4 mph 18.4 mph N/A   Clear
5:35 PM 82.4 °F 44.6 °F 26% 30.16 in 10.0 mi South 9.2 mph - N/A   Clear
5:55 PM 82.4 °F 42.8 °F 25% 30.16 in 10.0 mi South 12.7 mph - N/A   Clear
6:35 PM 80.6 °F 46.4 °F 30% 30.15 in 10.0 mi SSE 10.4 mph - N/A   Clear
7:15 PM 78.8 °F 46.4 °F 32% 30.14 in 10.0 mi SSE 8.1 mph - N/A   Clear
7:35 PM 77.0 °F 48.2 °F 36% 30.15 in 10.0 mi SSE 6.9 mph - N/A   Clear
7:55 PM 73.4 °F 50.0 °F 44% 30.15 in 10.0 mi SSE 6.9 mph - N/A   Clear
8:15 PM 71.6 °F 48.2 °F 43% 30.15 in 10.0 mi SE 6.9 mph - N/A   Clear
8:35 PM 69.8 °F 48.2 °F 46% 30.16 in 10.0 mi SE 6.9 mph - N/A   Clear
8:55 PM 69.8 °F 50.0 °F 49% 30.16 in 10.0 mi SE 6.9 mph - N/A   Clear
9:15 PM 69.8 °F 48.2 °F 46% 30.17 in 10.0 mi SE 8.1 mph - N/A   Clear
9:35 PM 68.0 °F 50.0 °F 52% 30.17 in 10.0 mi SSE 6.9 mph - N/A   Clear
9:55 PM 68.0 °F 50.0 °F 52% 30.18 in 10.0 mi SSE 8.1 mph - N/A   Clear
10:15 PM 68.0 °F 50.0 °F 52% 30.18 in 10.0 mi SSE 9.2 mph - N/A   Clear
10:35 PM 69.8 °F 50.0 °F 49% 30.18 in 10.0 mi SSE 10.4 mph - N/A   Clear
10:55 PM 69.8 °F 50.0 °F 49% 30.19 in 10.0 mi SSE 10.4 mph - N/A   Clear
11:15 PM 69.8 °F 50.0 °F 49% 30.19 in 10.0 mi SSE 9.2 mph - N/A   Clear
11:35 PM 68.0 °F 51.8 °F 56% 30.19 in 10.0 mi SSE 9.2 mph - N/A   Clear
11:55 PM 69.8 °F 51.8 °F 53% 30.19 in 10.0 mi SSE 11.5 mph 17.3 mph N/A   Clear